Regional Weather Roundup
Issued by NWS

Home | Current Version | Previous Version | Text Only | Print | Product List | Glossary On
Versions: 1 2 3 4 5 6 7 8 9 10 11 12 13 14 15 16 17 18 19 20 21 22 23 24 25 26 27 28 29 30 31 32 33 34 35 36 37 38 39 40 41 42 43 44 45 46 47 48 49 50
000
ASUS43 KTOP 172059
RWRKS

WEATHER ROUNDUP FOR KANSAS
NATIONAL WEATHER SERVICE GOODLAND KS
300 PM CST SUN DEC 17 2017

NOTE:  "FAIR" INDICATES FEW OR NO CLOUDS BELOW 12,000 FEET WITH NO
SIGNIFICANT WEATHER AND/OR OBSTRUCTIONS TO VISIBILITY.

KSZ001>006-013>018-027>032-041>047-172200-
NORTHWEST KANSAS

CITY           SKY/WX    TMP DP  RH WIND       PRES   REMARKS
GOODLAND       CLOUDY    40  26  57 CALM      29.95F
HAYS           CLOUDY    44  28  53 N12       29.98R
HILL CITY      CLOUDY    43  31  62 N10       29.99R
RUSSELL        SUNNY     45  30  55 NW9       29.97R
$$

KSZ061>065-074>080-084>089-172200-
SOUTHWEST KANSAS

CITY           SKY/WX    TMP DP  RH WIND       PRES   REMARKS
DODGE CITY     SUNNY     46  27  47 N12       29.97F
GARDEN CITY    SUNNY     45  28  51 N15       29.97F
GREAT BEND     SUNNY     48  30  49 NW10      29.97F
LIBERAL        SUNNY     46  29  51 N13       29.97F
$$

KSZ066>073-081>083-090>101-172200-
SOUTHEAST KANSAS

CITY           SKY/WX    TMP DP  RH WIND       PRES   REMARKS
CHANUTE        CLOUDY    47  44  90 S9        30.01S
COFFEYVILLE    CLOUDY    46  45  96 S5        30.02S
HUTCHINSON     MOSUNNY   53  39  59 SE5       29.96R
MEDICINE LODGE   N/A     51  33  50 MISG      29.97F
NEWTON         CLOUDY    49  40  71 S12       29.98R
PARSONS        CLOUDY    46  45  96 S6        30.02S
WICHITA INTL   CLOUDY    47  40  76 S6        29.99R
WICHITA JABRA  CLOUDY    45  41  86 S10       29.99R
WICHITA MCCONL CLOUDY    45  38  77 W7        29.99S
WINFIELD       CLOUDY    47  42  83 SW8       30.00S
$$

KSZ007>012-019>026-033>040-048>060-102>105-172200-
NORTHEAST KANSAS

CITY           SKY/WX    TMP DP  RH WIND       PRES   REMARKS
CONCORDIA      SUNNY     47  31  53 N9        29.96S
EMPORIA        CLOUDY    52  40  63 S8        29.96S
LAWRENCE       CLOUDY    50  43  77 CALM      29.98R
MANHATTAN      PTSUNNY   53  41  63 SW5       29.96R
OLATHE IND     CLOUDY    47  43  86 S7        29.99R
OLATHE EXE     CLOUDY    46  43  89 S5        29.98S
SALINA         SUNNY     52  36  54 VRB3      29.98R
TOPEKA BILLARD PTSUNNY   51  44  77 W5        29.97S
TOPEKA FORBES  CLOUDY    51  43  74 S3        29.97S
$$




USA.gov is the U.S. government's official web portal to all federal, state and local government web resources and services.